Wind_Speed
64 68 71 75 78 80 82 83 83 81 77 72 67 62 59 57 55 54 54 53 52 51 50 49 48 48 48 51 55 61 69 76 82 85 85 84 82 80 78 76 74 71 69
67 71 75 78 80 81 82 81 80 76 73 69 65 61 59 58 57 56 56 55 55 54 53 51 50 49 48 48 49 52 58 66 75 82 86 86 84 84 81 80 78 75 73
72 75 78 80 81 81 81 79 77 73 69 66 63 61 59 58 56 55 55 55 54 54 54 53 51 51 50 48 47 48 50 54 63 74 82 86 87 86 84 83 81 79 77
75 78 79 80 81 80 79 77 73 70 68 66 63 61 58 55 54 52 51 50 50 51 51 51 52 51 51 49 48 47 47 48 53 62 73 82 87 87 85 84 83 81 79
76 78 79 80 80 79 77 74 71 68 66 63 60 57 55 53 51 49 48 47 46 47 47 47 48 50 50 49 48 47 46 46 47 53 63 74 83 87 87 85 84 83 80
77 78 80 80 79 78 75 72 68 65 63 60 57 55 53 51 49 47 46 45 44 43 43 44 44 46 47 48 47 46 45 45 45 47 54 64 75 84 88 88 85 84 83
78 79 80 79 78 76 72 68 65 63 60 57 56 55 53 51 49 47 45 43 42 41 41 40 41 41 43 45 46 45 44 44 43 44 47 55 65 76 84 88 87 86 84
78 78 78 78 76 73 69 66 63 61 58 57 56 55 53 51 49 48 46 44 42 40 39 38 38 39 40 41 43 44 44 43 43 43 44 47 56 67 77 84 87 87 86
77 77 78 77 74 70 67 64 62 59 58 57 57 55 53 51 49 48 46 43 41 40 38 37 36 36 37 39 40 42 43 43 42 42 42 44 48 57 68 77 83 87 87
76 77 77 75 71 67 64 62 60 59 58 58 57 55 53 51 49 46 44 42 40 39 37 36 35 35 35 36 38 40 42 42 42 42 42 43 44 49 58 68 76 82 86
76 76 75 72 68 64 62 61 59 59 58 58 57 55 52 49 47 45 43 42 40 39 38 36 34 33 33 33 35 37 40 41 42 42 42 42 43 45 50 58 67 75 81
75 75 74 69 65 62 61 60 59 59 58 58 57 54 51 49 46 45 43 43 42 41 39 37 36 34 32 32 33 35 37 39 41 42 42 42 43 44 46 51 57 65 73
75 74 71 66 63 61 60 59 59 59 59 58 56 54 51 49 47 46 46 45 45 44 42 40 38 36 34 33 32 33 35 37 40 41 43 42 42 43 44 47 51 57 64
74 72 68 64 61 60 59 58 58 59 59 58 56 54 52 50 49 48 49 49 48 47 45 43 41 39 37 35 33 33 33 35 38 40 42 43 43 43 43 45 48 51 56
72 70 66 62 60 58 58 58 58 59 59 58 56 55 52 52 51 51 51 52 52 51 50 48 46 43 40 38 36 34 33 33 36 38 41 43 44 44 43 44 45 47 50
71 68 64 60 58 57 57 57 58 58 59 58 57 55 53 53 53 54 54 55 55 54 53 51 47 43 41 39 38 36 34 33 35 37 40 42 44 44 44 43 44 45 46
69 65 61 59 57 57 57 57 57 58 59 58 57 56 55 55 55 56 58 58 58 57 55 49 43 38 35 35 36 37 35 33 34 36 38 41 44 45 44 44 44 43 44
67 63 59 57 56 56 56 56 57 58 59 58 58 57 57 57 57 59 60 61 61 59 52 45 37 30 25 24 28 33 34 33 33 34 36 39 42 44 45 45 44 43 43
64 61 58 56 55 55 55 56 56 57 58 58 59 59 58 59 59 61 62 63 62 58 51 43 33 23 15 14 19 25 28 30 31 32 34 38 41 43 45 45 45 44 43
63 59 56 55 54 54 54 55 55 56 58 59 59 60 60 60 61 62 64 65 63 59 52 42 30 19 9 7 12 18 22 24 26 28 31 35 39 42 44 45 45 44 43
61 58 56 54 53 53 53 54 55 57 57 58 60 61 61 61 62 63 64 65 64 59 52 41 30 19 7 3 8 11 15 18 21 24 28 33 37 40 42 44 45 44 44
60 57 54 53 53 52 53 53 54 56 57 58 59 60 61 62 62 63 64 65 64 60 54 43 31 20 11 3 2 5 8 13 17 21 25 30 34 38 40 43 45 45 45
58 55 53 52 52 52 52 53 53 55 56 57 58 59 61 62 62 63 64 64 65 62 57 48 36 25 15 8 3 1 5 8 13 18 22 26 31 35 38 42 44 45 45
57 54 52 51 51 51 52 52 52 54 55 56 57 58 59 61 62 63 64 64 65 63 59 53 42 31 22 14 7 3 1 5 9 13 17 22 27 32 36 40 43 45 46
56 53 51 50 50 50 51 51 51 52 53 55 56 57 58 60 61 63 64 65 65 64 61 57 50 40 29 20 13 7 3 2 5 10 14 18 23 28 33 38 41 44 46
55 52 50 49 49 49 50 50 50 51 52 53 54 55 57 59 60 61 63 64 64 63 61 58 54 48 39 30 21 14 8 4 3 7 11 15 19 24 30 35 39 42 45
Wind_Direction
324 323 323 322 321 320 319 317 315 314 313 312 310 307 304 300 297 294 291 289 286 284 282 280 279 277 274 269 263 256 249 244 241 238 237 236 236 236 235 235 235 235 234
326 326 325 324 323 321 320 319 317 317 315 314 312 309 306 302 298 295 292 289 287 284 281 279 277 275 273 272 268 263 255 248 242 238 235 233 233 233 233 233 233 233 233
328 327 326 325 324 323 322 321 320 319 318 317 315 312 309 306 302 298 295 291 288 284 281 277 275 274 272 270 269 266 261 254 246 240 235 231 230 230 231 231 232 232 232
330 329 328 327 326 325 324 324 323 322 321 319 317 315 312 309 306 303 299 295 291 286 282 278 274 271 270 268 267 266 264 259 251 244 238 233 229 228 228 229 230 230 231
331 330 329 328 328 327 326 326 325 325 324 323 322 320 318 315 312 308 305 301 297 292 286 281 275 270 268 266 264 263 263 261 255 247 241 235 230 227 226 226 228 228 229
331 331 330 330 329 329 328 329 328 328 328 327 326 325 323 320 317 314 310 306 301 296 291 286 279 273 267 264 262 261 260 259 256 251 244 238 233 228 225 224 225 227 227
333 332 332 331 331 331 331 331 332 332 331 330 329 328 326 324 322 319 316 311 306 301 295 289 283 277 270 264 260 258 257 256 255 252 247 240 235 231 227 225 223 224 226
334 333 333 333 332 333 333 334 334 334 333 332 331 330 328 326 324 322 320 317 313 308 301 294 286 279 273 267 261 257 254 253 252 251 247 243 237 233 230 227 224 223 224
335 334 334 334 334 335 336 336 336 336 335 334 333 331 329 328 326 324 323 320 317 313 308 302 293 284 275 269 263 257 253 251 249 248 246 243 239 235 231 229 226 224 222
336 336 335 336 336 337 337 338 337 337 337 336 335 333 331 330 329 327 325 323 320 317 313 309 301 291 281 271 264 258 252 249 248 246 244 242 239 236 233 230 229 226 224
337 337 337 337 338 338 339 339 339 339 338 338 337 335 334 333 332 330 329 327 323 319 314 311 307 298 288 277 267 259 252 248 246 244 242 240 238 236 233 231 230 229 226
338 338 338 339 339 339 340 340 340 340 340 340 339 338 336 335 333 331 329 327 324 321 316 310 306 301 294 284 273 262 254 247 244 242 240 239 237 235 233 230 229 229 228
339 339 339 340 340 340 341 341 342 342 342 342 342 341 339 337 335 332 329 326 324 320 316 311 305 300 294 287 278 267 256 248 243 240 238 237 235 233 232 230 228 227 228
340 340 340 341 341 341 342 343 343 344 344 344 344 343 341 340 337 334 331 328 325 321 316 310 304 298 292 285 278 270 259 249 242 238 236 234 233 232 230 229 227 226 225
341 341 341 342 342 343 344 344 345 346 346 346 346 345 343 341 339 337 334 331 327 322 317 310 302 295 288 281 274 268 260 250 242 237 233 232 231 230 228 227 226 224 223
342 342 342 343 343 344 345 346 347 348 348 348 348 347 346 344 342 340 337 334 330 325 320 313 304 294 284 275 269 263 257 249 241 235 231 229 228 228 227 226 224 223 222
343 343 343 344 345 346 347 348 349 350 351 350 349 349 348 347 345 343 341 338 335 331 326 320 311 299 284 270 261 256 252 246 240 233 229 226 225 225 224 224 223 221 219
344 345 345 345 346 347 348 349 350 351 351 351 352 352 351 350 348 347 345 343 341 339 335 330 322 309 291 268 253 248 245 241 237 232 227 225 223 222 222 221 221 220 218
346 346 347 347 348 349 350 351 352 352 352 353 354 354 354 353 352 351 350 349 348 347 344 341 335 325 301 262 242 240 237 235 232 229 226 223 221 220 219 219 219 218 217
347 348 348 349 350 350 351 353 353 353 354 356 357 357 357 357 356 356 356 355 355 354 353 351 348 345 323 245 225 234 230 227 226 224 223 221 219 217 216 217 217 216 215
348 349 350 351 352 352 353 354 354 355 357 358 359 359 359 360 0 0 1 1 1 1 0 360 0 2 1 227 215 228 226 221 218 218 219 219 218 216 215 215 215 215 214
350 351 351 352 353 354 355 355 356 357 359 360 1 1 2 3 4 5 5 6 7 7 8 10 12 17 25 38 210 221 219 215 212 215 218 219 218 216 214 214 214 214 213
351 352 353 354 355 356 356 357 358 359 1 2 3 3 4 5 7 8 10 10 12 13 15 17 19 23 29 36 42 201 216 217 213 215 218 220 219 216 214 213 213 213 212
352 353 354 355 356 357 357 358 360 1 3 4 5 5 6 8 9 11 13 14 16 18 20 22 23 26 29 33 35 35 224 228 222 220 221 222 221 218 215 214 213 212 212
353 354 355 356 357 358 359 360 1 3 4 5 7 7 9 10 12 13 15 17 18 20 22 24 26 27 29 31 32 29 8 270 240 230 228 227 224 221 218 216 215 213 212
354 355 356 357 358 360 0 1 3 4 6 7 8 10 11 13 14 16 17 18 20 22 23 25 27 29 29 29 29 26 19 352 287 249 238 233 230 225 221 218 216 215 213
Height
5779 5767 5755 5742 5729 5715 5700 5685 5670 5656 5642 5631 5620 5610 5601 5593 5586 5580 5574 5570 5566 5564 5562 5560 5558 5557 5555 5555 5555 5558 5563 5569 5577 5589 5601 5613 5623 5633 5642 5652 5661 5670 5678
5768 5755 5742 5728 5714 5699 5683 5668 5653 5639 5625 5614 5603 5593 5585 5577 5570 5564 5558 5553 5549 5546 5544 5543 5542 5540 5539 5538 5538 5538 5541 5546 5552 5562 5575 5589 5601 5608 5621 5631 5640 5650 5659
5755 5742 5728 5714 5699 5683 5668 5652 5636 5623 5610 5598 5588 5579 5570 5561 5553 5547 5540 5535 5531 5527 5526 5525 5524 5523 5522 5522 5522 5522 5523 5526 5531 5536 5547 5561 5573 5586 5600 5610 5620 5629 5639
5743 5729 5715 5700 5684 5668 5652 5636 5621 5608 5595 5583 5573 5563 5554 5545 5537 5530 5524 5518 5513 5509 5507 5506 5505 5505 5505 5505 5506 5506 5507 5509 5512 5516 5523 5534 5548 5562 5577 5588 5598 5609 5621
5732 5717 5701 5685 5669 5653 5637 5622 5608 5594 5581 5569 5558 5548 5538 5530 5522 5515 5509 5503 5498 5493 5490 5488 5487 5486 5487 5488 5489 5490 5491 5493 5495 5499 5504 5512 5523 5537 5552 5566 5576 5588 5601
5721 5705 5688 5672 5656 5640 5624 5610 5596 5582 5570 5557 5546 5536 5527 5518 5510 5503 5496 5490 5484 5479 5475 5472 5470 5469 5469 5471 5472 5474 5476 5477 5479 5482 5487 5493 5502 5513 5527 5542 5556 5568 5581
5709 5693 5676 5660 5644 5628 5613 5599 5585 5572 5560 5548 5537 5526 5517 5508 5499 5491 5484 5478 5472 5466 5462 5458 5455 5454 5453 5454 5456 5458 5460 5462 5465 5467 5471 5476 5483 5492 5504 5519 5534 5548 5561
5698 5681 5665 5648 5633 5617 5602 5589 5575 5563 5551 5540 5528 5518 5507 5498 5489 5480 5473 5466 5459 5454 5449 5445 5442 5440 5439 5439 5440 5442 5445 5448 5451 5454 5457 5461 5467 5474 5484 5496 5511 5527 5541
5688 5671 5655 5638 5622 5607 5593 5580 5567 5555 5543 5531 5520 5509 5499 5489 5480 5471 5463 5455 5448 5442 5437 5432 5429 5426 5425 5425 5425 5427 5430 5433 5437 5440 5443 5448 5452 5458 5467 5477 5490 5505 5521
5679 5662 5646 5629 5613 5599 5585 5572 5559 5547 5535 5523 5512 5501 5490 5480 5470 5462 5454 5446 5439 5432 5427 5421 5417 5414 5412 5411 5411 5413 5415 5419 5422 5426 5430 5434 5439 5444 5451 5461 5471 5484 5499
5670 5653 5637 5621 5606 5592 5578 5566 5553 5541 5529 5517 5505 5493 5482 5472 5462 5453 5445 5437 5430 5423 5417 5411 5406 5402 5400 5398 5398 5399 5401 5405 5408 5412 5417 5422 5427 5432 5438 5446 5455 5466 5479
5661 5645 5629 5613 5599 5586 5573 5560 5547 5535 5522 5510 5498 5486 5475 5465 5455 5446 5438 5429 5422 5414 5407 5401 5396 5392 5388 5386 5385 5385 5387 5391 5394 5399 5404 5409 5414 5420 5426 5432 5441 5450 5462
5654 5637 5622 5607 5593 5580 5567 5554 5542 5529 5516 5504 5492 5480 5468 5458 5448 5439 5430 5421 5412 5404 5396 5390 5385 5380 5377 5374 5372 5372 5374 5377 5380 5385 5390 5396 5402 5408 5414 5420 5428 5437 5447
5647 5631 5616 5601 5588 5575 5562 5549 5537 5524 5511 5498 5486 5474 5462 5451 5441 5431 5420 5410 5401 5391 5383 5377 5371 5366 5363 5361 5359 5359 5360 5363 5367 5372 5377 5383 5389 5396 5403 5409 5416 5425 5435
5641 5625 5610 5597 5584 5571 5558 5545 5532 5519 5506 5493 5481 5468 5457 5445 5434 5422 5411 5399 5388 5377 5367 5359 5353 5349 5346 5344 5344 5345 5346 5349 5353 5358 5364 5370 5377 5384 5391 5398 5406 5414 5423
5635 5619 5605 5592 5579 5566 5554 5541 5528 5515 5502 5489 5477 5464 5452 5439 5427 5414 5401 5388 5374 5361 5349 5338 5330 5326 5325 5325 5326 5328 5331 5335 5340 5345 5351 5358 5365 5373 5381 5388 5396 5405 5413
5630 5615 5601 5587 5575 5562 5550 5537 5525 5512 5499 5486 5473 5460 5446 5433 5420 5406 5392 5377 5361 5345 5331 5318 5308 5303 5302 5303 5307 5310 5315 5321 5327 5333 5339 5346 5353 5362 5370 5378 5387 5395 5404
5625 5611 5597 5584 5571 5559 5546 5534 5521 5509 5496 5483 5469 5456 5442 5428 5414 5399 5383 5366 5348 5331 5314 5301 5291 5286 5284 5285 5290 5294 5300 5307 5314 5321 5328 5335 5342 5351 5360 5368 5377 5386 5395
5621 5607 5594 5581 5568 5556 5544 5532 5519 5507 5494 5480 5466 5452 5438 5424 5409 5393 5376 5358 5339 5321 5304 5290 5280 5275 5272 5274 5278 5282 5288 5296 5303 5311 5317 5324 5332 5340 5349 5359 5368 5377 5386
5617 5604 5591 5578 5566 5554 5541 5529 5517 5505 5492 5478 5464 5449 5435 5420 5405 5388 5371 5352 5333 5314 5298 5284 5274 5269 5267 5268 5271 5275 5281 5288 5295 5302 5308 5315 5322 5330 5339 5349 5358 5367 5377
5614 5600 5588 5576 5564 5552 5540 5528 5516 5503 5490 5476 5462 5448 5434 5419 5403 5386 5369 5351 5332 5314 5297 5283 5274 5268 5266 5267 5269 5272 5277 5283 5289 5295 5301 5306 5313 5322 5331 5340 5349 5358 5368
5610 5597 5585 5573 5562 5550 5539 5527 5515 5502 5489 5475 5462 5448 5434 5419 5404 5387 5370 5353 5335 5317 5301 5287 5277 5272 5269 5269 5270 5273 5276 5281 5286 5290 5295 5301 5307 5315 5323 5332 5340 5350 5359
5608 5595 5583 5572 5560 5549 5538 5526 5514 5502 5489 5476 5463 5449 5435 5420 5405 5390 5374 5357 5340 5322 5306 5292 5283 5277 5274 5273 5273 5275 5277 5280 5284 5288 5292 5297 5302 5309 5316 5324 5332 5341 5350
5605 5593 5581 5570 5559 5548 5537 5525 5514 5502 5490 5477 5465 5451 5438 5423 5408 5393 5378 5362 5346 5330 5314 5301 5291 5284 5280 5278 5278 5278 5279 5281 5284 5286 5289 5293 5298 5303 5310 5317 5325 5333 5342
5604 5592 5580 5570 5559 5548 5537 5526 5515 5503 5491 5479 5467 5454 5441 5426 5412 5397 5382 5367 5351 5336 5323 5312 5301 5293 5288 5284 5282 5281 5281 5282 5283 5285 5287 5290 5294 5298 5304 5311 5318 5326 5334
5602 5590 5579 5569 5558 5548 5537 5526 5515 5504 5493 5482 5470 5458 5445 5431 5417 5403 5388 5373 5360 5346 5334 5322 5312 5303 5296 5290 5287 5285 5283 5283 5283 5285 5286 5288 5290 5294 5298 5304 5311 5318 5326